Weather History for Morgantown, WV

Change the Weather History Date:

Friday, January 18, 2002

  Actual Average Record
Temperature  
Mean Temperature 31 °F 31 °F  
Max Temperature 35 °F 39 °F 68 °F (1996)
Min Temperature 27 °F 24 °F -13 °F (1994)
Degree Days  
Heating Degree Days 34 34  
Month to date heating degree days 609  
Since 1 July heating degree days 2593  
Cooling Degree Days 0 0  
Month to date cooling degree days 0  
Year to date cooling degree days 0  
Moisture  
Dew Point 17 °F    
Average Humidity 57    
Maximum Humidity 66    
Minimum Humidity 46    
Precipitation  
Precipitation 0.00 in 0.09 in 0.50 in (2004)
Month to date precipitation 1.62  
Year to date precipitation 1.62  
Sea Level Pressure  
Sea Level Pressure 30.21 in    
Wind  
Wind Speed 6 mph (WSW)    
Max Wind Speed 10 mph    
Max Gust Speed 18 mph    
Visibility 10 miles    
Events      
T = Trace of Precipitation, MM = Missing Value Source: NWS Daily Summary

Daily Weather History Graph

Daily Weather History Graph

Search for Another Location

Airport:

Trip Planner

Search our weather history database for the weather conditions in past years. The results will help you decide how hot, cold, wet, or windy it might be!

Date:

Astronomy

Jan. 18, 2002 Rise Set
Actual Time 7:37 AM EST 5:23 PM EST
Civil Twilight 7:08 AM EST 5:52 PM EST
Nautical Twilight 6:35 AM EST 6:25 PM EST
Astronomical Twilight 6:02 AM EST 6:57 PM EST
Moon 10:40 AM EST (1/18) 10:19 PM EST (1/18)
Length of Visible Light 10h 44m
Length of Day
9h 45m
Waxing Crescent, 23% of the Moon is Illuminated
Jan 18
Waxing Crescent
Jan 21
First Quarter
Jan 28
Full
Feb 4
Last Quarter
Feb 12
New

Hourly Weather History & Observations

Time (EST) Temp. Windchill Dew Point Humidity Pressure Visibility Wind Dir Wind Speed Gust Speed Precip Events Conditions
12:53 AM 30.9 °F 25.2 °F 18.0 °F 59% 30.11 in 10.0 mi Variable 5.8 mph - N/A   Overcast
1:53 AM 30.9 °F 26.2 °F 18.0 °F 59% 30.12 in 10.0 mi Variable 4.6 mph - N/A   Overcast
2:53 AM 30.0 °F 24.1 °F 19.0 °F 64% 30.15 in 10.0 mi West 5.8 mph - N/A   Overcast
3:53 AM 28.9 °F 21.9 °F 15.1 °F 56% 30.17 in 10.0 mi West 6.9 mph - N/A   Overcast
4:53 AM 27.0 °F 21.6 °F 14.0 °F 58% 30.18 in 10.0 mi Variable 4.6 mph - N/A   Mostly Cloudy
5:53 AM 27.0 °F 21.6 °F 14.0 °F 58% 30.19 in 10.0 mi SW 4.6 mph - N/A   Overcast
6:53 AM 27.0 °F 19.5 °F 14.0 °F 58% 30.19 in 10.0 mi SW 6.9 mph - N/A   Overcast
7:53 AM 27.0 °F 18.0 °F 16.0 °F 63% 30.21 in 10.0 mi SW 9.2 mph - N/A   Partly Cloudy
8:53 AM 28.0 °F 19.3 °F 17.1 °F 63% 30.22 in 10.0 mi SW 9.2 mph - N/A   Clear
9:22 AM 28.4 °F 20.4 °F 17.6 °F 64% 30.19 in 10.0 mi WSW 8.1 mph 18.4 mph N/A   Mostly Cloudy
9:53 AM 28.9 °F 20.4 °F 18.0 °F 64% 30.23 in 10.0 mi WSW 9.2 mph 18.4 mph N/A   Scattered Clouds
10:53 AM 30.9 °F 22.2 °F 16.0 °F 54% 30.25 in 10.0 mi West 10.4 mph 16.1 mph N/A   Mostly Cloudy
11:53 AM 32.0 °F 24.8 °F 14.0 °F 48% 30.23 in 10.0 mi WNW 8.1 mph - N/A   Mostly Cloudy
12:53 PM 34.0 °F 27.2 °F 15.1 °F 46% 30.21 in 10.0 mi WNW 8.1 mph - N/A   Mostly Cloudy
1:53 PM 34.0 °F 26.6 °F 16.0 °F 48% 30.20 in 10.0 mi West 9.2 mph - N/A   Mostly Cloudy
2:53 PM 35.1 °F 28.6 °F 16.0 °F 46% 30.21 in 10.0 mi West 8.1 mph - N/A   Mostly Cloudy
3:53 PM 35.1 °F 31.0 °F 17.1 °F 48% 30.22 in 10.0 mi Variable 4.6 mph - N/A   Overcast
4:53 PM 35.1 °F 30.1 °F 17.1 °F 48% 30.22 in 10.0 mi Variable 5.8 mph - N/A   Overcast
5:53 PM 34.0 °F 28.0 °F 18.0 °F 52% 30.24 in 10.0 mi SW 6.9 mph - N/A   Overcast
6:53 PM 34.0 °F 28.0 °F 18.0 °F 52% 30.25 in 10.0 mi SW 6.9 mph - N/A   Overcast
7:53 PM 33.1 °F 27.7 °F 18.0 °F 54% 30.25 in 10.0 mi SW 5.8 mph - N/A   Clear
8:53 PM 28.9 °F - 18.0 °F 64% 30.23 in 10.0 mi Calm Calm - N/A   Clear
9:53 PM 28.0 °F 24.2 °F 18.0 °F 66% 30.21 in 10.0 mi South 3.5 mph - N/A   Clear
10:53 PM 30.0 °F 25.2 °F 18.0 °F 61% 30.24 in 10.0 mi SW 4.6 mph - N/A   Clear
11:53 PM 28.0 °F 24.2 °F 17.1 °F 63% 30.21 in 10.0 mi SSW 3.5 mph - N/A   Clear